Location: Gull Harbor
(47.1000°N, 122.9000°W)
Time: 19:04:10
(UTC-08:00)

ISS - Visible Passes

Search period start: 15 November 2018 00:00
Search period end: 25 November 2018 00:00
Orbit: 402 x 408 km, 51.6° (Epoch: 16 November)

Date Brightness Start Highest point End Pass type
(mag) Time Alt. Az. Time Alt. Az. Time Alt. Az.
15 Nov -1.2 05:11:42 12° S 05:11:42 12° S 05:12:12 10° S visible
23 Nov -1.5 18:06:13 10° SSE 18:07:11 12° SSE 18:07:11 12° SSE visible
24 Nov -1.8 18:48:36 10° SW 18:50:04 23° SSW 18:50:04 23° SSW visible
